Location: Crocus Hill
(18.2167°N, 63.0667°W)
Time: 18:04:01
(UTC+00:00)

Helios 1A Rocket - Pass Details

Date: 26 January 2020
Orbit: 565 x 586 km, 98.3° (Epoch: 23 February)

Event Time Altitude Azimuth Distance (km) Brightness Sun altitude
Rises 09:42:02 0° 15° (NNE) 2,801 6.4 -15.5°
Reaches altitude 10° 09:44:12 10° 18° (NNE) 1,902 5.6 -15.0°
Maximum altitude 09:48:18 68° 102° (ESE) 630 3.3 -14.1°
Drops below altitude 10° 09:52:24 10° 185° (S) 1,899 5.7 -13.1°
Sets 09:54:33 0° 188° (S) 2,797 6.5 -12.6°
